Stations météo

Publicité
Garmisch-Partenkirchen, Allemagne (10963): Température de l'air & dewpoint: 12.01.2018 06:00:00 - 18.01.2018 06:00:00 (CET)Garmisch-Partenkirchen, Allemagne (10963): Température de l'air 5cm & Température de l'air -5cm: 12.01.2018 06:00:00 - 18.01.2018 06:00:00 (CET)Garmisch-Partenkirchen, Allemagne (10963): Température de l'air -20cm & Température de l'air -100cm: 12.01.2018 06:00:00 - 18.01.2018 06:00:00 (CET)Garmisch-Partenkirchen, Allemagne (10963): Vitesse du vent & gusts: 12.01.2018 06:00:00 - 18.01.2018 06:00:00 (CET)Garmisch-Partenkirchen, Allemagne (10963): Direction du vent: 12.01.2018 06:00:00 - 18.01.2018 06:00:00 (CET)Garmisch-Partenkirchen, Allemagne (10963): reduced air pressure: 12.01.2018 06:00:00 - 18.01.2018 06:00:00 (CET)Garmisch-Partenkirchen, Allemagne (10963): visibility: 12.01.2018 06:00:00 - 18.01.2018 06:00:00 (CET)Garmisch-Partenkirchen, Allemagne (10963): Ensoleillement: 12.01.2018 06:00:00 - 18.01.2018 06:00:00 (CET)Garmisch-Partenkirchen, Allemagne (10963): Quantités de précipitations: 12.01.2018 06:00:00 - 18.01.2018 06:00:00 (CET)
Date & Time tt [°C] td [°C] tt 5cm [°C] tt -5cm [°C] tt -20cm [°C] tt -100cm [°C] ff [km/h] ff [knt] fx [km/h] fx [knt] dd ppp [hPa] vv [km] sd [min] rr [mm]
18.01.2018 06:00:00 -0,4 -1,5 -1,3 0,2 0,6 3,6 4 2 12 7 N 1015,0 52 0 0,0
18.01.2018 05:00:00 -0,2 -1,9 -1,2 0,2 0,5 3,6 4 2 10 6 NE 1015,3 11 0 0,1
18.01.2018 04:00:00 0,0 -2,0 -1,2 0,2 0,5 3,6 5 3 25 13 WSW 1015,8 7 0 0,0
18.01.2018 03:00:00 0,3 -3,2 -1,1 0,2 0,5 3,6 9 5 22 12 W 1016,3 11 0 0,0
18.01.2018 02:00:00 -0,5 -2,3 -2,2 0,2 0,5 3,6 5 3 16 8 SSE 1016,3 70 0 0,1
18.01.2018 01:00:00 -0,2 -3,0 -1,4 0,2 0,5 3,6 7 4 16 9 W 1016,5 12 0 0,1
18.01.2018 00:00:00 0,0 -3,1 -1,5 0,2 0,5 3,6 6 3 20 11 WSW 1016,0 47 0 0,0
17.01.2018 23:00:00 0,3 -4,1 -1,6 0,2 0,5 3,6 9 5 30 16 W 1015,6 31 0 0,0
17.01.2018 22:00:00 0,7 -4,8 -1,5 0,2 0,5 3,6 14 8 40 22 WSW 1014,6 59 0 0,0
17.01.2018 21:00:00 0,3 -4,4 -1,6 0,2 0,5 3,6 11 6 38 21 SW 1014,2 12 0 0,0
17.01.2018 20:00:00 0,3 -5,1 -2,0 0,2 0,5 3,6 13 7 26 14 WSW 1013,3 70 0 0,0
17.01.2018 19:00:00 -0,7 -3,6 -2,3 0,2 0,5 3,6 5 3 23 12 WNW 1013,2 31 0 0,1
17.01.2018 18:00:00 -0,9 -3,6 -2,3 0,2 0,5 3,6 6 3 29 16 W 1012,7 17 0 0,1
17.01.2018 17:00:00 -0,7 -4,0 -2,3 0,2 0,5 3,6 7 4 16 9 WNW 1012,0 49 0 0,1
17.01.2018 16:00:00 -1,0 -4,2 -2,1 0,2 0,5 3,6 8 4 29 16 WNW 1011,5 9 0 0,1
17.01.2018 15:00:00 -0,5 -5,3 -2,1 0,1 0,5 3,6 12 6 45 24 WSW 1010,1 20 0 0,0
17.01.2018 14:00:00 -0,2 -4,2 -1,7 0,1 0,5 3,6 19 10 42 23 WSW 1008,9 24 0 0,3
17.01.2018 13:00:00 -0,3 -1,5 -0,6 0,1 0,5 3,6 8 4 15 8 ENE 1007,5 8 0 1,9
17.01.2018 12:00:00 -0,9 -1,7 -0,9 0,1 0,5 3,6 4 2 27 15 S 1007,0 1,4 0 2,0
17.01.2018 11:00:00 -0,6 -1,3 -0,8 0,1 0,5 3,7 15 8 34 18 SW 1007,2 0,7 0 0,3
17.01.2018 10:00:00 0,7 -2,2 -0,1 0,1 0,5 3,7 15 8 26 14 WSW 1004,0 5 0 0,2
17.01.2018 09:00:00 1,3 -2,4 0,0 0,1 0,5 3,7 11 6 32 18 W 1002,5 70 0 0,1
17.01.2018 08:00:00 0,8 -0,6 0,0 0,1 0,5 3,7 6 4 21 11 SSW 1002,0 11 0 0,1
17.01.2018 07:00:00 1,2 -0,8 0,0 0,1 0,5 3,7 8 4 23 12 W 1001,4 21 0 1,5
17.01.2018 06:00:00 0,4 -0,1 0,0 0,1 0,5 3,7 8 4 16 8 N 1001,1 2,7 0 3,2
17.01.2018 05:00:00 0,3 0,0 0,0 0,1 0,5 3,7 6 4 12 6 ESE 1001,1 0,7 0 4,0
17.01.2018 04:00:00 0,3 0,0 0,0 0,1 0,5 3,7 3 2 11 6 SE 1001,3 2,0 0 0,5
17.01.2018 03:00:00 0,2 -0,1 0,0 0,1 0,5 3,7 4 2 8 4 ESE 1001,2 4,0 0 2,5
17.01.2018 02:00:00 0,2 0,0 0,0 0,1 0,5 3,7 3 1 8 4 WSW 1001,1 2,2 0 2,6
17.01.2018 01:00:00 0,5 0,2 0,0 0,1 0,5 3,7 3 2 9 5 WSW 1002,8 4,5 0 2,2
17.01.2018 00:00:00 1,0 0,6 0,1 0,1 0,5 3,7 3 2 9 5 SE 1002,3 7 0 0,8
16.01.2018 23:00:00 0,6 0,3 0,0 0,1 0,5 3,7 4 2 10 5 W 1002,6 5 0 0,4
16.01.2018 22:00:00 0,7 0,3 0,0 0,1 0,5 3,7 7 4 13 7 SSW 1002,6 8 0 0,3
16.01.2018 21:00:00 0,5 0,1 0,0 0,1 0,5 3,7 3 1 18 10 E 1003,5 5 0 1,3
16.01.2018 20:00:00 0,4 0,2 0,0 0,1 0,5 3,7 5 3 10 6 ENE 1004,0 3,3 0 3,5
16.01.2018 19:00:00 0,7 0,3 0,0 0,1 0,5 3,7 5 3 10 5 W 1004,3 3,0 0 2,7
16.01.2018 18:00:00 1,9 1,1 1,1 0,1 0,5 3,7 6 3 28 15 ENE 1002,8 14 0 4,9
16.01.2018 17:00:00 3,2 2,7 2,1 0,0 0,5 3,7 8 4 14 7 NNE 1002,5 5 0 0,6
16.01.2018 16:00:00 3,7 2,2 2,4 0,0 0,5 3,7 8 5 16 9 NNE 1000,1 36 0 0,3
16.01.2018 15:00:00 3,7 2,4 2,2 0,0 0,5 3,7 5 3 12 6 NE 1000,8 51 0 0,2
16.01.2018 14:00:00 3,6 2,8 1,8 0,0 0,5 3,7 3 2 14 8 SSE 1001,2 10 0 0,5
16.01.2018 13:00:00 4,9 2,1 3,1 0,0 0,5 3,7 6 4 18 10 W 1001,9 9 0 0,2
16.01.2018 12:00:00 4,7 1,1 3,4 0,0 0,5 3,7 6 3 15 8 E 1002,9 25 0 0,1
16.01.2018 11:00:00 4,9 0,4 3,0 0,0 0,5 3,7 5 3 19 11 NNW 1003,2 70 7 0,0
16.01.2018 10:00:00 3,9 0,2 2,4 0,0 0,5 3,7 5 3 18 10 ESE 1003,3 47 0 0,0
16.01.2018 09:00:00 3,9 -0,4 2,2 0,0 0,5 3,7 8 4 18 10 SW 1003,5 60 0 0,0
16.01.2018 08:00:00 3,6 -1,4 2,1 0,0 0,5 3,7 7 4 12 6 NE 1003,3 70 0 0,0
16.01.2018 07:00:00 3,9 -1,1 2,0 0,0 0,5 3,7 5 3 21 11 S 1004,0 70 0 0,0
16.01.2018 06:00:00 2,0 -1,7 0,7 0,0 0,5 3,7 3 2 15 8 SSE 1005,3 70 0 0,0
16.01.2018 05:00:00 3,4 -2,9 1,9 0,0 0,5 3,7 7 4 13 7 NNE 1004,8 70 0 0,0
16.01.2018 04:00:00 1,7 -2,4 0,1 0,0 0,5 3,7 5 3 14 8 WSW 1006,1 70 0 0,0
16.01.2018 03:00:00 2,5 -1,9 0,3 0,0 0,5 3,7 6 3 17 9 WNW 1006,0 70 0 0,0
16.01.2018 02:00:00 3,0 -1,3 1,1 0,0 0,5 3,7 9 5 32 18 S 1007,3 70 0 0,0
16.01.2018 01:00:00 3,8 -5,4 1,5 0,0 0,5 3,7 7 4 18 10 SSW 1007,4 70 0 0,0
16.01.2018 00:00:00 0,5 -4,2 -0,5 0,0 0,5 3,7 7 4 11 6 WSW 1009,4 56 0 0,0
15.01.2018 23:00:00 1,1 -5,2 -0,3 0,0 0,5 3,7 3 2 10 5 ENE 1010,1 46 0 0,0
15.01.2018 22:00:00 0,6 -3,6 -1,3 0,0 0,5 3,7 6 3 13 7 NE 1010,9 41 0 0,0
15.01.2018 21:00:00 -0,1 -4,1 -1,6 0,0 0,5 3,7 9 5 14 8 WSW 1011,2 39 0 0,0
15.01.2018 20:00:00 -0,9 -4,3 -2,4 0,0 0,5 3,7 5 3 9 5 W 1012,3 35 0 0,0
15.01.2018 19:00:00 -1,4 -3,7 -3,1 0,0 0,5 3,7 5 3 7 4 SW 1013,7 24 0 0,0
15.01.2018 18:00:00 -1,2 -3,3 -2,8 0,0 0,5 3,7 5 3 9 5 WNW 1014,7 29 0 0,0
15.01.2018 17:00:00 -0,3 -2,6 -2,8 0,0 0,5 3,7 6 3 9 5 SSW 1015,9 24 0 0,0
15.01.2018 16:00:00 1,1 -3,3 -1,0 0,0 0,5 3,7 4 2 9 5 SSW 1016,6 49 0 0,0
15.01.2018 15:00:00 1,5 -4,1 -0,4 0,0 0,5 3,7 6 3 13 7 SSW 1017,1 60 37 0,0
15.01.2018 14:00:00 3,5 -4,3 3,2 0,0 0,5 3,7 7 4 11 6 SSW 1017,2 23 60 0,0
15.01.2018 13:00:00 3,2 -5,0 3,7 0,0 0,5 3,7 6 3 9 5 SW 1018,8 27 60 0,0
15.01.2018 12:00:00 1,8 -5,3 3,0 0,0 0,6 3,7 4 2 10 6 S 1020,7 24 60 0,0
15.01.2018 11:00:00 -1,2 -4,2 -3,4 0,0 0,6 3,7 5 3 10 6 SSW 1022,9 28 60 0,0
15.01.2018 10:00:00 -5,2 -6,2 -8,0 0,0 0,6 3,7 4 2 10 6 WSW 1024,7 25 6 0,0
15.01.2018 09:00:00 -6,6 -7,4 -9,5 0,1 0,6 3,7 5 3 8 4 SW 1025,4 26 0 0,0
15.01.2018 08:00:00 -7,1 -8,0 -10,8 0,1 0,6 3,7 4 2 6 3 WSW 1025,6 26 0 0,0
15.01.2018 07:00:00 -6,9 -7,7 -10,7 0,1 0,6 3,7 4 2 6 4 WSW 1025,7 23 0 0,0
15.01.2018 06:00:00 -6,9 -7,7 -10,2 0,1 0,6 3,7 2 1 6 3 WSW 1025,8 21 0 0,0
15.01.2018 05:00:00 -6,6 -7,5 -9,7 0,2 0,6 3,7 4 2 6 3 SW 1025,9 17 0 0,0
15.01.2018 04:00:00 -6,2 -7,0 -9,0 0,2 0,6 3,7 4 2 6 3 SW 1026,1 16 0 0,0
15.01.2018 03:00:00 -5,8 -6,6 -9,0 0,2 0,6 3,7 4 2 6 4 SSW 1026,1 14 0 0,0
15.01.2018 02:00:00 -5,0 -5,8 -8,3 0,2 0,6 3,7 1 1 5 3 WSW 1025,7 13 0 0,0
15.01.2018 01:00:00 -3,8 -5,0 -6,8 0,2 0,6 3,7 3 2 5 3 WSW 1025,6 16 0 0,0
15.01.2018 00:00:00 -2,9 -4,4 -4,9 0,2 0,6 3,7 3 2 6 3 SW 1025,3 17 0 0,0
14.01.2018 23:00:00 -2,5 -4,1 -4,2 0,2 0,6 3,7 3 2 9 5 SW 1025,3 18 0 0,0
14.01.2018 22:00:00 -1,8 -4,1 -3,0 0,2 0,6 3,7 5 3 8 4 SW 1024,7 20 0 0,0
14.01.2018 21:00:00 -1,5 -4,0 -2,9 0,2 0,6 3,7 4 2 6 3 SW 1024,3 18 0 0,0
14.01.2018 20:00:00 -1,3 -4,1 -2,3 0,2 0,6 3,7 4 2 8 4 SW 1024,1 20 0 0,0
14.01.2018 19:00:00 -1,4 -4,4 -2,1 0,2 0,6 3,7 5 3 9 5 SSW 1023,7 22 0 0,0
14.01.2018 18:00:00 -1,1 -4,2 -2,2 0,2 0,6 3,7 4 2 8 5 SW 1023,4 21 0 0,0
14.01.2018 17:00:00 -0,7 -4,2 -1,6 0,2 0,6 3,7 4 2 9 5 S 1022,8 25 0 0,0
14.01.2018 16:00:00 -0,5 -4,9 -1,5 0,2 0,6 3,7 7 4 14 7 SSW 1022,6 26 0 0,0
14.01.2018 15:00:00 0,0 -4,2 -0,5 0,2 0,6 3,7 5 3 10 5 SE 1022,1 24 0 0,0
14.01.2018 14:00:00 0,0 -4,8 -0,5 0,2 0,6 3,7 4 2 9 5 ESE 1022,0 27 0 0,0
14.01.2018 13:00:00 -0,6 -4,6 -0,5 0,2 0,6 3,7 4 2 8 4 ESE 1022,5 24 2 0,0
14.01.2018 12:00:00 -1,5 -3,7 -1,6 0,2 0,6 3,7 3 1 6 3 ESE 1023,2 22 0 0,0
14.01.2018 11:00:00 -2,3 -3,7 -2,5 0,2 0,6 3,7 0 0 9 5 N 1024,0 26 0 0,0
14.01.2018 10:00:00 -3,4 -4,6 -3,6 0,2 0,6 3,7 5 3 8 4 SSW 1023,8 26 0 0,0
14.01.2018 09:00:00 -4,9 -6,0 -5,4 0,2 0,6 3,7 3 1 4 2 WSW 1024,4 39 0 0,0
14.01.2018 08:00:00 -5,8 -6,8 -7,4 0,2 0,7 3,7 4 2 8 4 SW 1023,9 51 0 0,0
14.01.2018 07:00:00 -6,6 -7,5 -8,1 0,2 0,7 3,7 4 2 5 3 WSW 1024,2 34 0 0,0
14.01.2018 06:00:00 -7,2 -8,0 -11,4 0,2 0,7 3,7 4 2 6 4 WSW 1024,1 35 0 0,0
14.01.2018 05:00:00 -6,8 -7,5 -10,3 0,2 0,7 3,7 1 0 6 3 S 1024,2 10 0 0,0
14.01.2018 04:00:00 -6,5 -7,3 -10,1 0,2 0,7 3,7 3 1 5 3 SW 1024,2 24 0 0,0
14.01.2018 03:00:00 -6,0 -6,9 -9,7 0,2 0,7 3,7 3 1 8 4 WSW 1023,9 24 0 0,0
14.01.2018 02:00:00 -5,6 -6,5 -9,2 0,2 0,7 3,7 0 0 7 4 N 1024,0 20 0 0,0
14.01.2018 01:00:00 -5,7 -6,5 -9,5 0,3 0,7 3,7 5 3 7 4 SSW 1024,3 15 0 0,0
14.01.2018 00:00:00 -5,2 -5,8 -10,7 0,3 0,7 3,7 2 1 6 3 SSW 1024,7 11 0 0,0
13.01.2018 23:00:00 -5,0 -5,7 -8,9 0,3 0,7 3,7 4 2 7 4 SW 1024,7 10 0 0,0
13.01.2018 22:00:00 -4,6 -5,4 -7,8 0,3 0,7 3,7 3 2 6 3 WSW 1024,8 7 0 0,0
13.01.2018 21:00:00 -4,2 -4,8 -7,2 0,3 0,7 3,7 4 2 6 4 SW 1024,9 6 0 0,0
13.01.2018 20:00:00 -3,5 -4,0 -6,9 0,3 0,7 3,7 0 0 6 3 N 1024,9 7 0 0,0
13.01.2018 19:00:00 -3,1 -3,7 -6,3 0,3 0,7 3,7 4 2 6 3 S 1025,0 7 0 0,0
13.01.2018 18:00:00 -2,4 -3,5 -5,1 0,3 0,7 3,7 5 3 9 5 SW 1024,7 9 0 0,0
13.01.2018 17:00:00 -1,3 -2,6 -4,9 0,3 0,7 3,7 4 2 8 5 W 1024,4 16 0 0,0
13.01.2018 16:00:00 -0,2 -2,3 -3,6 0,3 0,7 3,7 5 3 16 9 WSW 1023,9 23 0 0,0
13.01.2018 15:00:00 2,1 -2,4 0,3 0,3 0,7 3,7 8 4 15 8 ENE 1022,8 28 36 0,0
13.01.2018 14:00:00 3,0 -3,2 2,9 0,3 0,7 3,7 5 3 9 5 SSW 1022,5 37 60 0,0
13.01.2018 13:00:00 2,6 -3,9 3,4 0,3 0,7 3,7 6 3 13 7 S 1023,2 21 60 0,0
13.01.2018 12:00:00 1,9 -3,0 3,2 0,3 0,7 3,7 9 5 13 7 S 1024,3 16 42 0,0
13.01.2018 11:00:00 1,2 -3,7 0,8 0,3 0,7 3,7 5 3 9 5 SSW 1025,3 26 20 0,0
13.01.2018 10:00:00 -0,4 -2,0 -0,6 0,3 0,7 3,7 4 2 7 4 SSW 1025,7 14 0 0,0
13.01.2018 09:00:00 -1,6 -2,3 -1,9 0,3 0,7 3,7 3 2 6 3 SSW 1026,3 11 0 0,0
13.01.2018 08:00:00 -2,2 -2,6 -3,5 0,3 0,7 3,7 3 2 6 3 WSW 1026,5 6 0 0,0
13.01.2018 07:00:00 -1,6 -2,0 -3,7 0,3 0,7 3,7 4 2 7 4 SSW 1026,2 7 0 0,0
13.01.2018 06:00:00 -1,0 -1,7 -3,0 0,3 0,7 3,7 2 1 6 3 W 1026,1 6 0 0,0
13.01.2018 05:00:00 0,0 -1,0 -0,7 0,3 0,7 3,7 3 2 5 3 SSW 1025,8 6 0 0,0
13.01.2018 04:00:00 0,1 -1,1 -0,5 0,3 0,7 3,7 0 0 6 4 N 1026,1 8 0 0,0
13.01.2018 03:00:00 0,3 -0,8 -0,1 0,3 0,7 3,7 4 2 7 4 E 1026,3 6 0 0,0
13.01.2018 02:00:00 0,4 -0,3 0,0 0,3 0,7 3,7 3 2 6 3 ESE 1026,2 4,9 0 0,0
13.01.2018 01:00:00 0,3 -0,6 -0,3 0,3 0,7 3,7 2 1 6 3 N 1026,4 6 0 0,0
13.01.2018 00:00:00 0,4 -0,3 -0,3 0,3 0,7 3,7 4 2 6 3 SW 1026,7 4,3 0 0,0
12.01.2018 23:00:00 0,9 -0,3 -0,1 0,3 0,7 3,7 0 0 9 5 N 1026,8 7 0 0,0
12.01.2018 22:00:00 1,2 -0,1 0,4 0,3 0,7 3,7 2 1 7 4 ENE 1026,7 7 0 0,0
12.01.2018 21:00:00 1,2 0,1 0,4 0,3 0,7 3,7 3 2 6 3 ENE 1026,8 9 0 0,0
12.01.2018 20:00:00 1,1 0,3 0,3 0,3 0,7 3,7 0 0 6 3 N 1026,5 7 0 0,0
12.01.2018 19:00:00 1,4 -0,2 0,7 0,3 0,7 3,7 5 3 9 5 E 1026,3 11 0 0,0
12.01.2018 18:00:00 1,4 0,1 0,7 0,3 0,7 3,7 6 3 10 5 ESE 1026,2 10 0 0,0
12.01.2018 17:00:00 1,6 0,4 0,8 0,3 0,7 3,7 6 4 15 8 ESE 1025,9 10 0 0,0
12.01.2018 16:00:00 1,9 0,3 1,3 0,3 0,7 3,7 9 5 18 10 E 1025,5 11 0 0,0
12.01.2018 15:00:00 2,5 0,6 2,0 0,3 0,7 3,7 9 5 15 8 ESE 1024,7 13 0 0,0
12.01.2018 14:00:00 2,8 0,5 2,5 0,2 0,7 3,7 9 5 16 8 ENE 1024,4 12 14 0,0
12.01.2018 13:00:00 2,6 -0,1 4,0 0,3 0,7 3,7 6 4 9 5 S 1024,4 12 6 0,0
12.01.2018 12:00:00 2,3 0,4 3,0 0,2 0,7 3,7 5 3 7 4 E 1024,6 11 0 0,0
12.01.2018 11:00:00 1,6 1,0 1,7 0,2 0,7 3,7 3 1 6 4 S 1025,3 2,9 0 0,0
12.01.2018 10:00:00 1,2 1,0 1,0 0,2 0,7 3,7 5 3 10 5 E 1025,1 0,9 0 0,0
12.01.2018 09:00:00 1,1 0,9 0,9 0,2 0,7 3,7 6 3 9 5 ENE 1024,7 0,3 0 0,0
12.01.2018 08:00:00 1,0 0,8 0,7 0,2 0,7 3,7 3 2 6 3 E 1024,2 0,2 0 0,0
12.01.2018 07:00:00 0,9 0,7 0,4 0,2 0,7 3,7 0 0 8 4 N 1023,8 0,5 0 0,0
12.01.2018 06:00:00 1,0 0,8 0,7 0,2 0,7 3,7 5 3 11 6 ENE 1023,3 0,6 0 0,0

tt = Température de l'air
td = dewpoint
tt 5cm = Température de l'air 5cm
tt -5cm = Température de l'air -5cm
tt -20cm = Température de l'air -20cm
tt -100cm = Température de l'air -100cm
ff = Vitesse du vent
fx = gusts
dd = Direction du vent
ppp = reduced air pressure
vv = visibility
sd = Ensoleillement
rr = Quantités de précipitations

stations d'obs. à proximité